Precipitable_Water
0.30 0.30 0.29 0.29 0.27 0.27 0.25 0.27 0.27 0.29 0.29 0.30 0.30 0.32 0.32 0.32 0.32 0.32 0.30 0.30 0.30 0.30 0.29 0.29 0.30 0.30 0.29 0.29 0.30 0.30 0.30 0.32 0.32 0.32 0.34 0.34 0.34 0.34 0.34 0.34 0.34 0.34 0.34 0.34 0.36 0.36 0.36 0.36 0.36 0.36 0.36 0.36 0.36 0.36 0.36 0.36 0.36 0.36 0.36 0.36 0.36 0.38 0.38 0.38 0.38 0.40 0.40 0.40 0.40 0.40 0.40 0.40 0.42 0.42 0.42 0.42 0.42 0.42 0.42 0.42 0.42 0.40 0.40 0.42 0.42 0.44
0.29 0.29 0.27 0.27 0.27 0.25 0.25 0.27 0.29 0.29 0.29 0.30 0.30 0.32 0.32 0.32 0.30 0.30 0.30 0.30 0.30 0.30 0.30 0.30 0.30 0.30 0.29 0.29 0.30 0.30 0.30 0.32 0.32 0.32 0.32 0.32 0.34 0.34 0.34 0.34 0.34 0.34 0.34 0.34 0.36 0.36 0.36 0.36 0.36 0.36 0.36 0.36 0.36 0.36 0.36 0.36 0.36 0.36 0.36 0.36 0.38 0.38 0.38 0.38 0.40 0.40 0.40 0.40 0.40 0.40 0.40 0.40 0.42 0.42 0.40 0.40 0.42 0.42 0.40 0.40 0.40 0.42 0.42 0.42 0.42 0.44
0.27 0.27 0.27 0.27 0.27 0.25 0.27 0.29 0.29 0.30 0.30 0.30 0.30 0.32 0.32 0.30 0.30 0.30 0.30 0.30 0.30 0.30 0.30 0.30 0.30 0.30 0.29 0.29 0.30 0.30 0.30 0.32 0.32 0.32 0.32 0.32 0.34 0.34 0.34 0.34 0.34 0.34 0.34 0.36 0.36 0.36 0.36 0.36 0.36 0.36 0.38 0.38 0.36 0.36 0.36 0.36 0.36 0.36 0.36 0.38 0.38 0.38 0.40 0.40 0.40 0.40 0.40 0.40 0.40 0.40 0.40 0.40 0.40 0.40 0.40 0.40 0.40 0.40 0.40 0.40 0.40 0.42 0.42 0.42 0.42 0.42
0.27 0.27 0.25 0.27 0.27 0.27 0.27 0.29 0.30 0.30 0.32 0.32 0.32 0.32 0.32 0.32 0.30 0.30 0.30 0.30 0.29 0.29 0.30 0.30 0.30 0.30 0.30 0.30 0.30 0.30 0.30 0.32 0.32 0.32 0.32 0.32 0.32 0.34 0.34 0.34 0.34 0.34 0.34 0.36 0.36 0.36 0.36 0.36 0.38 0.38 0.38 0.38 0.38 0.38 0.36 0.36 0.36 0.36 0.38 0.38 0.38 0.40 0.40 0.40 0.40 0.40 0.40 0.40 0.40 0.40 0.40 0.40 0.40 0.40 0.40 0.40 0.40 0.40 0.40 0.40 0.40 0.42 0.42 0.42 0.42 0.42
0.27 0.27 0.27 0.27 0.27 0.27 0.29 0.29 0.30 0.32 0.32 0.32 0.32 0.32 0.32 0.30 0.30 0.30 0.30 0.30 0.30 0.29 0.30 0.30 0.30 0.30 0.30 0.30 0.30 0.30 0.30 0.32 0.32 0.32 0.32 0.32 0.32 0.34 0.34 0.34 0.34 0.34 0.36 0.36 0.36 0.36 0.36 0.38 0.38 0.38 0.38 0.38 0.38 0.36 0.36 0.36 0.36 0.38 0.38 0.38 0.40 0.40 0.40 0.40 0.40 0.40 0.40 0.40 0.40 0.40 0.40 0.40 0.40 0.40 0.40 0.40 0.40 0.40 0.40 0.40 0.40 0.40 0.42 0.42 0.42 0.42
0.27 0.27 0.27 0.27 0.27 0.29 0.29 0.30 0.32 0.32 0.32 0.32 0.32 0.32 0.32 0.30 0.30 0.30 0.30 0.30 0.30 0.30 0.30 0.30 0.30 0.30 0.30 0.30 0.30 0.30 0.30 0.32 0.32 0.32 0.32 0.32 0.34 0.34 0.34 0.34 0.34 0.36 0.36 0.36 0.36 0.36 0.38 0.38 0.38 0.38 0.38 0.36 0.36 0.36 0.36 0.38 0.38 0.38 0.40 0.40 0.40 0.40 0.40 0.40 0.40 0.40 0.40 0.40 0.40 0.40 0.40 0.38 0.38 0.40 0.40 0.40 0.40 0.40 0.40 0.40 0.40 0.40 0.42 0.42 0.42 0.42
0.25 0.27 0.27 0.27 0.29 0.29 0.30 0.30 0.32 0.32 0.32 0.32 0.32 0.30 0.30 0.30 0.30 0.30 0.30 0.30 0.30 0.30 0.30 0.30 0.30 0.30 0.30 0.30 0.30 0.30 0.30 0.32 0.32 0.32 0.32 0.32 0.34 0.34 0.34 0.34 0.34 0.36 0.36 0.36 0.36 0.36 0.36 0.38 0.38 0.38 0.38 0.36 0.36 0.36 0.38 0.38 0.38 0.40 0.40 0.40 0.40 0.40 0.38 0.40 0.38 0.38 0.38 0.38 0.38 0.38 0.38 0.38 0.38 0.38 0.38 0.38 0.40 0.40 0.40 0.40 0.40 0.40 0.40 0.42 0.42 0.42
0.25 0.27 0.27 0.29 0.29 0.29 0.30 0.30 0.32 0.32 0.32 0.32 0.30 0.30 0.30 0.30 0.30 0.30 0.30 0.30 0.30 0.30 0.30 0.30 0.30 0.30 0.30 0.30 0.30 0.30 0.30 0.32 0.32 0.32 0.32 0.34 0.34 0.34 0.34 0.34 0.36 0.36 0.36 0.36 0.36 0.36 0.36 0.36 0.36 0.36 0.36 0.36 0.36 0.38 0.38 0.38 0.38 0.40 0.38 0.38 0.38 0.38 0.38 0.38 0.38 0.36 0.38 0.38 0.38 0.38 0.38 0.38 0.38 0.38 0.38 0.38 0.38 0.38 0.38 0.38 0.40 0.40 0.40 0.40 0.40 0.40
0.25 0.27 0.29 0.29 0.29 0.29 0.29 0.30 0.30 0.32 0.32 0.32 0.32 0.30 0.30 0.30 0.30 0.30 0.30 0.30 0.30 0.30 0.30 0.30 0.30 0.30 0.30 0.30 0.32 0.32 0.32 0.32 0.32 0.32 0.34 0.34 0.34 0.34 0.34 0.34 0.36 0.36 0.36 0.36 0.36 0.36 0.36 0.36 0.36 0.36 0.36 0.36 0.36 0.38 0.38 0.38 0.38 0.38 0.38 0.38 0.38 0.38 0.36 0.36 0.36 0.36 0.36 0.36 0.38 0.38 0.38 0.38 0.38 0.38 0.38 0.38 0.38 0.38 0.38 0.38 0.38 0.40 0.40 0.40 0.40 0.40
0.27 0.27 0.29 0.29 0.29 0.29 0.29 0.30 0.30 0.32 0.34 0.32 0.32 0.32 0.32 0.30 0.30 0.30 0.30 0.30 0.30 0.32 0.30 0.30 0.30 0.30 0.30 0.30 0.32 0.32 0.32 0.34 0.34 0.34 0.34 0.34 0.34 0.34 0.34 0.36 0.36 0.36 0.36 0.36 0.36 0.36 0.36 0.36 0.36 0.36 0.36 0.36 0.36 0.38 0.38 0.38 0.38 0.38 0.36 0.36 0.36 0.36 0.36 0.36 0.36 0.36 0.36 0.36 0.38 0.38 0.38 0.38 0.38 0.38 0.38 0.38 0.38 0.38 0.38 0.38 0.38 0.38 0.38 0.38 0.38 0.38
0.27 0.29 0.29 0.29 0.29 0.30 0.30 0.30 0.32 0.32 0.34 0.32 0.32 0.32 0.32 0.32 0.32 0.30 0.30 0.30 0.30 0.30 0.30 0.30 0.30 0.30 0.32 0.32 0.32 0.32 0.32 0.34 0.34 0.34 0.34 0.34 0.34 0.34 0.36 0.36 0.36 0.36 0.36 0.36 0.34 0.34 0.36 0.36 0.36 0.36 0.36 0.36 0.38 0.38 0.36 0.36 0.36 0.36 0.36 0.36 0.36 0.36 0.36 0.36 0.36 0.36 0.36 0.36 0.36 0.38 0.38 0.38 0.38 0.38 0.38 0.36 0.38 0.38 0.38 0.38 0.38 0.38 0.38 0.38 0.38 0.38
0.27 0.29 0.29 0.29 0.29 0.29 0.30 0.30 0.32 0.32 0.32 0.32 0.30 0.30 0.30 0.32 0.32 0.32 0.30 0.30 0.30 0.30 0.32 0.32 0.32 0.32 0.32 0.32 0.32 0.34 0.34 0.34 0.34 0.34 0.34 0.34 0.34 0.34 0.36 0.36 0.36 0.36 0.36 0.34 0.34 0.34 0.34 0.36 0.36 0.36 0.36 0.36 0.36 0.36 0.36 0.36 0.36 0.34 0.34 0.34 0.34 0.34 0.34 0.36 0.36 0.36 0.36 0.36 0.36 0.36 0.36 0.36 0.36 0.36 0.36 0.36 0.36 0.38 0.38 0.38 0.38 0.38 0.38 0.38 0.38 0.40
0.29 0.29 0.29 0.29 0.29 0.29 0.29 0.29 0.30 0.30 0.30 0.30 0.30 0.30 0.30 0.32 0.32 0.32 0.32 0.30 0.30 0.32 0.32 0.32 0.32 0.32 0.34 0.34 0.34 0.34 0.34 0.34 0.34 0.34 0.34 0.34 0.36 0.36 0.36 0.34 0.34 0.34 0.34 0.34 0.34 0.34 0.36 0.36 0.36 0.36 0.36 0.34 0.34 0.36 0.36 0.34 0.34 0.34 0.34 0.34 0.34 0.34 0.34 0.34 0.34 0.34 0.34 0.36 0.36 0.36 0.36 0.36 0.36 0.36 0.36 0.36 0.36 0.38 0.38 0.38 0.38 0.38 0.36 0.38 0.38 0.40
0.27 0.27 0.27 0.27 0.29 0.29 0.29 0.29 0.29 0.29 0.30 0.30 0.30 0.30 0.30 0.32 0.32 0.32 0.32 0.32 0.32 0.32 0.34 0.34 0.34 0.34 0.34 0.34 0.34 0.36 0.34 0.34 0.34 0.34 0.34 0.36 0.36 0.36 0.36 0.34 0.34 0.34 0.34 0.34 0.34 0.34 0.36 0.36 0.36 0.36 0.34 0.34 0.34 0.34 0.34 0.34 0.34 0.34 0.34 0.34 0.34 0.34 0.34 0.34 0.34 0.34 0.34 0.34 0.34 0.36 0.36 0.36 0.36 0.36 0.36 0.36 0.36 0.38 0.38 0.38 0.36 0.36 0.36 0.38 0.38 0.40
0.27 0.27 0.27 0.27 0.27 0.27 0.29 0.29 0.29 0.29 0.30 0.30 0.32 0.32 0.32 0.32 0.32 0.32 0.32 0.32 0.34 0.34 0.34 0.34 0.34 0.34 0.34 0.34 0.36 0.36 0.36 0.34 0.34 0.34 0.34 0.36 0.36 0.38 0.36 0.34 0.34 0.34 0.34 0.34 0.34 0.34 0.36 0.36 0.34 0.34 0.34 0.32 0.32 0.32 0.32 0.32 0.32 0.32 0.32 0.32 0.34 0.34 0.34 0.34 0.34 0.34 0.34 0.34 0.34 0.34 0.36 0.36 0.36 0.36 0.36 0.36 0.36 0.36 0.36 0.36 0.36 0.36 0.36 0.38 0.40 0.40
0.27 0.27 0.27 0.27 0.27 0.27 0.29 0.29 0.29 0.29 0.30 0.30 0.32 0.32 0.30 0.30 0.32 0.32 0.32 0.34 0.34 0.36 0.36 0.36 0.34 0.34 0.34 0.36 0.36 0.36 0.36 0.36 0.34 0.34 0.34 0.36 0.38 0.38 0.36 0.34 0.32 0.32 0.32 0.34 0.34 0.34 0.36 0.34 0.32 0.32 0.32 0.30 0.32 0.32 0.32 0.32 0.32 0.32 0.32 0.32 0.32 0.32 0.32 0.32 0.32 0.34 0.34 0.34 0.34 0.34 0.34 0.34 0.34 0.36 0.36 0.36 0.36 0.36 0.36 0.36 0.36 0.36 0.38 0.38 0.38 0.38
0.27 0.27 0.27 0.27 0.27 0.27 0.29 0.29 0.29 0.29 0.30 0.30 0.30 0.30 0.32 0.32 0.32 0.34 0.34 0.36 0.36 0.36 0.36 0.36 0.36 0.34 0.34 0.34 0.36 0.36 0.38 0.36 0.36 0.36 0.36 0.36 0.36 0.36 0.36 0.34 0.32 0.32 0.32 0.34 0.34 0.36 0.36 0.34 0.32 0.30 0.30 0.30 0.30 0.32 0.32 0.32 0.32 0.32 0.32 0.32 0.32 0.32 0.32 0.32 0.32 0.32 0.34 0.34 0.34 0.34 0.34 0.34 0.34 0.34 0.36 0.36 0.36 0.36 0.36 0.34 0.34 0.36 0.38 0.38 0.38 0.36
0.27 0.27 0.27 0.27 0.27 0.27 0.29 0.29 0.29 0.29 0.30 0.30 0.30 0.30 0.32 0.32 0.34 0.34 0.36 0.36 0.38 0.38 0.38 0.36 0.36 0.34 0.34 0.34 0.36 0.38 0.38 0.38 0.38 0.36 0.36 0.36 0.36 0.36 0.34 0.32 0.32 0.32 0.34 0.34 0.34 0.34 0.34 0.32 0.30 0.30 0.29 0.30 0.30 0.32 0.32 0.32 0.32 0.32 0.32 0.32 0.32 0.32 0.32 0.32 0.32 0.32 0.32 0.32 0.34 0.34 0.34 0.34 0.34 0.34 0.34 0.34 0.34 0.34 0.34 0.34 0.36 0.36 0.38 0.36 0.36 0.34
0.27 0.27 0.27 0.27 0.27 0.27 0.27 0.29 0.29 0.29 0.29 0.30 0.30 0.32 0.32 0.32 0.34 0.36 0.36 0.38 0.38 0.38 0.38 0.36 0.36 0.34 0.36 0.36 0.38 0.38 0.40 0.40 0.38 0.36 0.36 0.34 0.34 0.34 0.34 0.32 0.32 0.32 0.34 0.34 0.34 0.34 0.32 0.30 0.30 0.29 0.30 0.30 0.30 0.32 0.32 0.30 0.30 0.30 0.32 0.30 0.30 0.32 0.32 0.32 0.32 0.32 0.32 0.32 0.32 0.32 0.32 0.32 0.34 0.34 0.34 0.34 0.34 0.34 0.34 0.34 0.34 0.36 0.38 0.36 0.36 0.34
0.27 0.27 0.27 0.27 0.27 0.27 0.27 0.27 0.29 0.29 0.29 0.32 0.32 0.32 0.32 0.34 0.34 0.36 0.38 0.38 0.40 0.40 0.40 0.38 0.36 0.36 0.36 0.38 0.38 0.40 0.40 0.38 0.38 0.36 0.34 0.34 0.32 0.32 0.32 0.32 0.32 0.32 0.34 0.34 0.34 0.32 0.32 0.30 0.29 0.29 0.29 0.30 0.30 0.30 0.30 0.30 0.30 0.30 0.30 0.30 0.30 0.30 0.30 0.32 0.32 0.32 0.32 0.32 0.32 0.32 0.32 0.32 0.32 0.32 0.32 0.32 0.34 0.34 0.34 0.34 0.36 0.38 0.38 0.36 0.34 0.34
0.27 0.27 0.27 0.27 0.27 0.27 0.27 0.29 0.29 0.30 0.30 0.34 0.34 0.34 0.34 0.34 0.36 0.36 0.38 0.40 0.40 0.40 0.38 0.38 0.36 0.36 0.38 0.38 0.38 0.40 0.40 0.40 0.38 0.36 0.36 0.32 0.32 0.32 0.32 0.32 0.32 0.32 0.34 0.32 0.32 0.32 0.30 0.29 0.29 0.29 0.29 0.30 0.30 0.30 0.30 0.30 0.30 0.30 0.30 0.30 0.30 0.30 0.30 0.30 0.30 0.30 0.30 0.30 0.30 0.32 0.32 0.32 0.32 0.32 0.32 0.32 0.32 0.32 0.32 0.36 0.36 0.36 0.36 0.34 0.32 0.32
0.27 0.27 0.29 0.29 0.27 0.27 0.30 0.30 0.32 0.32 0.34 0.36 0.36 0.36 0.36 0.36 0.36 0.38 0.38 0.40 0.40 0.40 0.38 0.38 0.38 0.38 0.40 0.40 0.40 0.40 0.40 0.40 0.38 0.36 0.34 0.30 0.30 0.30 0.30 0.32 0.32 0.32 0.32 0.32 0.32 0.30 0.30 0.29 0.29 0.29 0.29 0.30 0.30 0.30 0.30 0.30 0.30 0.30 0.30 0.30 0.30 0.30 0.30 0.30 0.30 0.30 0.30 0.30 0.30 0.30 0.32 0.32 0.32 0.32 0.32 0.32 0.32 0.32 0.32 0.34 0.36 0.36 0.36 0.34 0.32 0.32
0.29 0.29 0.29 0.29 0.29 0.30 0.34 0.34 0.36 0.36 0.38 0.38 0.38 0.38 0.38 0.38 0.38 0.40 0.40 0.40 0.40 0.40 0.40 0.40 0.40 0.40 0.40 0.40 0.40 0.40 0.40 0.38 0.36 0.34 0.32 0.29 0.29 0.30 0.30 0.32 0.32 0.32 0.32 0.30 0.30 0.30 0.29 0.29 0.29 0.29 0.29 0.29 0.29 0.29 0.29 0.29 0.30 0.30 0.30 0.30 0.30 0.30 0.30 0.30 0.30 0.30 0.30 0.30 0.30 0.30 0.32 0.32 0.32 0.32 0.32 0.32 0.32 0.32 0.32 0.34 0.36 0.36 0.34 0.34 0.32 0.32
0.30 0.30 0.30 0.30 0.32 0.34 0.36 0.38 0.38 0.38 0.40 0.40 0.42 0.42 0.42 0.40 0.42 0.42 0.42 0.42 0.42 0.42 0.42 0.42 0.42 0.40 0.38 0.40 0.40 0.40 0.38 0.38 0.38 0.36 0.34 0.29 0.29 0.30 0.32 0.32 0.32 0.32 0.30 0.30 0.29 0.29 0.29 0.29 0.29 0.29 0.29 0.29 0.29 0.29 0.29 0.29 0.29 0.30 0.30 0.30 0.30 0.30 0.30 0.30 0.30 0.30 0.30 0.30 0.30 0.30 0.32 0.32 0.32 0.32 0.32 0.32 0.32 0.32 0.32 0.34 0.34 0.36 0.34 0.34 0.32 0.32
0.34 0.34 0.34 0.34 0.34 0.36 0.40 0.40 0.40 0.40 0.40 0.42 0.42 0.44 0.44 0.44 0.44 0.42 0.42 0.42 0.42 0.42 0.42 0.40 0.40 0.40 0.38 0.38 0.38 0.38 0.38 0.36 0.36 0.34 0.32 0.29 0.29 0.29 0.30 0.32 0.32 0.32 0.30 0.29 0.29 0.29 0.29 0.29 0.29 0.29 0.29 0.29 0.29 0.29 0.29 0.29 0.29 0.29 0.29 0.29 0.29 0.30 0.30 0.30 0.30 0.30 0.30 0.30 0.30 0.30 0.32 0.32 0.32 0.32 0.32 0.32 0.32 0.32 0.32 0.34 0.34 0.34 0.34 0.34 0.32 0.32
0.36 0.36 0.36 0.36 0.38 0.38 0.40 0.40 0.40 0.42 0.42 0.44 0.44 0.44 0.44 0.44 0.42 0.38 0.38 0.40 0.40 0.42 0.42 0.40 0.40 0.38 0.38 0.38 0.38 0.36 0.36 0.34 0.34 0.32 0.30 0.29 0.29 0.30 0.32 0.32 0.32 0.30 0.29 0.29 0.29 0.29 0.29 0.27 0.27 0.29 0.29 0.27 0.29 0.29 0.29 0.29 0.29 0.29 0.29 0.29 0.29 0.29 0.29 0.29 0.29 0.30 0.30 0.30 0.30 0.30 0.30 0.32 0.32 0.32 0.32 0.32 0.32 0.32 0.32 0.34 0.34 0.34 0.34 0.34 0.32 0.32
0.36 0.36 0.36 0.38 0.38 0.38 0.38 0.38 0.38 0.40 0.42 0.44 0.44 0.44 0.42 0.40 0.38 0.36 0.38 0.38 0.40 0.42 0.42 0.40 0.40 0.38 0.36 0.36 0.36 0.34 0.34 0.32 0.32 0.32 0.30 0.30 0.30 0.30 0.32 0.32 0.32 0.30 0.29 0.27 0.27 0.27 0.27 0.27 0.27 0.27 0.27 0.27 0.27 0.29 0.29 0.29 0.29 0.29 0.29 0.29 0.29 0.29 0.29 0.29 0.29 0.30 0.30 0.30 0.30 0.30 0.30 0.30 0.32 0.32 0.32 0.32 0.32 0.32 0.34 0.34 0.34 0.34 0.34 0.34 0.32 0.32
0.36 0.36 0.36 0.36 0.36 0.36 0.36 0.36 0.38 0.38 0.40 0.42 0.42 0.42 0.40 0.38 0.38 0.38 0.40 0.40 0.42 0.42 0.40 0.40 0.38 0.36 0.34 0.34 0.34 0.34 0.32 0.32 0.32 0.32 0.32 0.30 0.30 0.30 0.32 0.32 0.30 0.30 0.29 0.27 0.27 0.27 0.27 0.27 0.27 0.27 0.27 0.27 0.27 0.27 0.27 0.29 0.29 0.29 0.29 0.29 0.29 0.29 0.29 0.29 0.29 0.29 0.30 0.30 0.30 0.30 0.30 0.30 0.32 0.32 0.32 0.32 0.32 0.32 0.34 0.34 0.34 0.34 0.34 0.34 0.32 0.32
0.36 0.36 0.36 0.36 0.36 0.36 0.36 0.36 0.38 0.38 0.40 0.40 0.40 0.40 0.40 0.40 0.40 0.40 0.42 0.42 0.42 0.42 0.40 0.40 0.38 0.36 0.34 0.32 0.32 0.32 0.30 0.30 0.32 0.32 0.32 0.30 0.30 0.32 0.32 0.30 0.30 0.29 0.27 0.25 0.25 0.27 0.27 0.27 0.27 0.27 0.27 0.27 0.27 0.27 0.27 0.27 0.27 0.27 0.29 0.29 0.29 0.29 0.29 0.29 0.29 0.29 0.29 0.30 0.30 0.30 0.30 0.30 0.32 0.32 0.32 0.32 0.32 0.32 0.34 0.34 0.34 0.34 0.34 0.34 0.34 0.34
0.36 0.36 0.34 0.36 0.36 0.36 0.36 0.36 0.38 0.40 0.40 0.40 0.40 0.40 0.40 0.42 0.44 0.44 0.44 0.44 0.44 0.42 0.40 0.40 0.38 0.36 0.34 0.32 0.32 0.30 0.29 0.30 0.30 0.32 0.32 0.32 0.32 0.32 0.32 0.30 0.29 0.27 0.27 0.25 0.25 0.25 0.25 0.27 0.27 0.27 0.27 0.27 0.27 0.27 0.27 0.27 0.27 0.27 0.29 0.29 0.29 0.29 0.29 0.29 0.29 0.29 0.30 0.30 0.30 0.30 0.32 0.32 0.32 0.32 0.32 0.32 0.32 0.32 0.34 0.34 0.34 0.34 0.34 0.34 0.34 0.32
0.34 0.34 0.34 0.34 0.36 0.36 0.36 0.38 0.38 0.40 0.40 0.40 0.40 0.40 0.42 0.44 0.44 0.44 0.44 0.44 0.42 0.42 0.40 0.38 0.36 0.34 0.32 0.32 0.30 0.29 0.29 0.29 0.30 0.32 0.34 0.32 0.32 0.32 0.32 0.29 0.29 0.27 0.27 0.27 0.25 0.23 0.23 0.23 0.25 0.25 0.27 0.25 0.25 0.27 0.27 0.27 0.27 0.27 0.27 0.27 0.29 0.29 0.29 0.29 0.29 0.29 0.30 0.30 0.30 0.30 0.32 0.32 0.32 0.32 0.32 0.32 0.32 0.32 0.34 0.34 0.34 0.34 0.34 0.34 0.32 0.32
0.34 0.34 0.34 0.36 0.36 0.38 0.38 0.38 0.40 0.40 0.40 0.40 0.40 0.42 0.42 0.44 0.44 0.44 0.44 0.44 0.42 0.40 0.38 0.36 0.36 0.34 0.32 0.30 0.29 0.29 0.29 0.30 0.32 0.34 0.34 0.34 0.32 0.32 0.30 0.29 0.27 0.27 0.27 0.27 0.25 0.23 0.21 0.21 0.23 0.25 0.25 0.25 0.25 0.25 0.27 0.27 0.27 0.27 0.27 0.27 0.27 0.27 0.29 0.29 0.29 0.29 0.30 0.30 0.30 0.30 0.32 0.32 0.32 0.32 0.32 0.32 0.32 0.32 0.34 0.34 0.34 0.34 0.34 0.32 0.32 0.32
0.34 0.36 0.36 0.36 0.38 0.38 0.40 0.40 0.40 0.40 0.40 0.40 0.42 0.42 0.44 0.44 0.44 0.44 0.44 0.44 0.42 0.40 0.40 0.38 0.36 0.34 0.32 0.30 0.30 0.29 0.29 0.30 0.32 0.34 0.36 0.34 0.34 0.32 0.30 0.29 0.27 0.27 0.27 0.27 0.25 0.25 0.21 0.21 0.23 0.23 0.25 0.25 0.25 0.25 0.27 0.27 0.27 0.27 0.27 0.27 0.27 0.27 0.29 0.29 0.29 0.29 0.30 0.30 0.30 0.30 0.32 0.32 0.32 0.32 0.32 0.32 0.32 0.32 0.34 0.34 0.34 0.34 0.34 0.32 0.32 0.32
0.34 0.36 0.38 0.38 0.40 0.40 0.40 0.40 0.40 0.40 0.42 0.42 0.42 0.44 0.44 0.44 0.44 0.44 0.44 0.44 0.42 0.40 0.40 0.38 0.36 0.34 0.32 0.30 0.30 0.29 0.29 0.30 0.32 0.34 0.36 0.36 0.34 0.30 0.30 0.29 0.27 0.27 0.27 0.25 0.25 0.25 0.23 0.23 0.23 0.23 0.23 0.25 0.25 0.25 0.25 0.27 0.27 0.27 0.29 0.29 0.27 0.27 0.27 0.29 0.29 0.29 0.30 0.30 0.30 0.30 0.30 0.30 0.32 0.32 0.32 0.32 0.32 0.32 0.32 0.32 0.34 0.34 0.34 0.32 0.32 0.32
0.34 0.36 0.38 0.38 0.40 0.40 0.40 0.40 0.40 0.42 0.44 0.44 0.44 0.44 0.44 0.46 0.44 0.44 0.44 0.44 0.42 0.40 0.38 0.38 0.36 0.34 0.32 0.30 0.29 0.29 0.30 0.32 0.36 0.38 0.38 0.34 0.32 0.30 0.29 0.27 0.27 0.27 0.25 0.25 0.25 0.23 0.23 0.23 0.23 0.23 0.21 0.23 0.25 0.25 0.27 0.27 0.27 0.29 0.29 0.29 0.29 0.29 0.29 0.29 0.30 0.30 0.30 0.30 0.30 0.30 0.30 0.30 0.30 0.30 0.30 0.32 0.32 0.32 0.32 0.32 0.32 0.32 0.34 0.34 0.34 0.32
0.38 0.38 0.38 0.40 0.40 0.42 0.40 0.42 0.42 0.42 0.44 0.44 0.46 0.46 0.46 0.46 0.46 0.44 0.44 0.42 0.42 0.40 0.40 0.38 0.36 0.36 0.34 0.32 0.30 0.30 0.34 0.36 0.38 0.38 0.38 0.34 0.30 0.29 0.27 0.29 0.27 0.27 0.25 0.25 0.23 0.23 0.21 0.23 0.23 0.23 0.21 0.21 0.23 0.23 0.25 0.27 0.27 0.29 0.29 0.29 0.29 0.29 0.29 0.30 0.30 0.30 0.30 0.30 0.30 0.30 0.30 0.30 0.30 0.30 0.30 0.32 0.32 0.32 0.32 0.32 0.32 0.32 0.32 0.34 0.34 0.34
0.40 0.40 0.42 0.42 0.42 0.42 0.42 0.44 0.44 0.46 0.48 0.46 0.46 0.46 0.46 0.46 0.44 0.44 0.44 0.42 0.40 0.40 0.38 0.38 0.36 0.36 0.34 0.32 0.32 0.32 0.36 0.38 0.38 0.38 0.38 0.34 0.32 0.30 0.29 0.29 0.29 0.27 0.27 0.25 0.23 0.23 0.23 0.21 0.21 0.21 0.21 0.21 0.21 0.23 0.23 0.25 0.27 0.27 0.27 0.29 0.29 0.29 0.30 0.30 0.32 0.32 0.30 0.30 0.30 0.30 0.30 0.30 0.30 0.30 0.30 0.30 0.32 0.32 0.32 0.32 0.32 0.32 0.32 0.34 0.32 0.32
0.42 0.44 0.44 0.42 0.44 0.44 0.46 0.46 0.48 0.48 0.48 0.48 0.48 0.46 0.46 0.44 0.44 0.42 0.42 0.42 0.40 0.38 0.38 0.36 0.36 0.34 0.34 0.34 0.34 0.36 0.40 0.40 0.38 0.38 0.38 0.34 0.32 0.30 0.29 0.29 0.27 0.27 0.27 0.25 0.25 0.23 0.21 0.21 0.21 0.21 0.21 0.23 0.23 0.23 0.23 0.25 0.25 0.27 0.27 0.29 0.29 0.30 0.30 0.32 0.32 0.32 0.30 0.30 0.30 0.30 0.30 0.30 0.30 0.30 0.30 0.30 0.30 0.30 0.30 0.30 0.30 0.32 0.32 0.32 0.32 0.32
0.44 0.44 0.46 0.46 0.46 0.48 0.48 0.50 0.50 0.50 0.50 0.48 0.48 0.46 0.46 0.44 0.42 0.42 0.40 0.40 0.38 0.38 0.36 0.34 0.34 0.34 0.34 0.36 0.38 0.38 0.40 0.38 0.38 0.36 0.36 0.32 0.32 0.30 0.29 0.27 0.27 0.27 0.27 0.25 0.25 0.23 0.23 0.21 0.21 0.21 0.21 0.21 0.23 0.23 0.25 0.25 0.25 0.25 0.27 0.27 0.29 0.29 0.30 0.30 0.32 0.32 0.32 0.30 0.30 0.30 0.30 0.30 0.30 0.30 0.30 0.30 0.30 0.30 0.29 0.30 0.30 0.32 0.32 0.32 0.32 0.32
0.46 0.46 0.46 0.48 0.50 0.50 0.50 0.52 0.52 0.52 0.52 0.50 0.48 0.48 0.46 0.42 0.42 0.42 0.42 0.40 0.38 0.38 0.36 0.36 0.34 0.34 0.36 0.36 0.38 0.40 0.40 0.38 0.38 0.36 0.34 0.32 0.32 0.30 0.30 0.29 0.27 0.27 0.27 0.25 0.25 0.25 0.23 0.23 0.23 0.23 0.23 0.23 0.23 0.23 0.25 0.25 0.25 0.27 0.27 0.27 0.27 0.29 0.30 0.32 0.32 0.32 0.32 0.30 0.30 0.30 0.30 0.30 0.30 0.30 0.30 0.29 0.29 0.29 0.30 0.29 0.30 0.30 0.32 0.30 0.30 0.30
0.48 0.48 0.48 0.50 0.52 0.52 0.52 0.52 0.52 0.52 0.50 0.48 0.46 0.44 0.44 0.42 0.40 0.40 0.40 0.40 0.38 0.36 0.34 0.34 0.34 0.34 0.38 0.38 0.40 0.40 0.38 0.36 0.36 0.34 0.32 0.32 0.32 0.30 0.30 0.29 0.27 0.27 0.25 0.25 0.25 0.25 0.25 0.23 0.23 0.25 0.25 0.23 0.25 0.25 0.25 0.25 0.27 0.27 0.27 0.27 0.29 0.30 0.30 0.32 0.32 0.32 0.32 0.30 0.30 0.30 0.30 0.30 0.30 0.29 0.29 0.29 0.29 0.30 0.30 0.30 0.30 0.30 0.32 0.32 0.30 0.29
0.50 0.50 0.50 0.54 0.54 0.54 0.54 0.52 0.52 0.50 0.48 0.46 0.44 0.42 0.42 0.40 0.40 0.38 0.38 0.36 0.34 0.32 0.32 0.32 0.34 0.36 0.38 0.38 0.40 0.38 0.36 0.34 0.34 0.32 0.32 0.32 0.30 0.30 0.29 0.29 0.27 0.27 0.25 0.25 0.25 0.25 0.25 0.25 0.25 0.25 0.25 0.25 0.25 0.25 0.25 0.25 0.27 0.27 0.29 0.27 0.29 0.29 0.30 0.30 0.32 0.32 0.30 0.30 0.30 0.30 0.30 0.29 0.29 0.29 0.29 0.30 0.30 0.30 0.30 0.30 0.32 0.32 0.32 0.32 0.32 0.32
0.54 0.54 0.54 0.56 0.56 0.54 0.54 0.52 0.50 0.48 0.44 0.42 0.42 0.40 0.40 0.40 0.38 0.38 0.36 0.34 0.32 0.32 0.32 0.32 0.32 0.34 0.38 0.38 0.38 0.36 0.34 0.34 0.32 0.32 0.32 0.30 0.30 0.30 0.29 0.29 0.27 0.27 0.27 0.25 0.25 0.25 0.27 0.27 0.27 0.27 0.27 0.27 0.25 0.25 0.25 0.25 0.27 0.27 0.29 0.29 0.29 0.29 0.29 0.29 0.30 0.30 0.30 0.30 0.30 0.30 0.30 0.30 0.30 0.30 0.30 0.30 0.30 0.30 0.30 0.32 0.32 0.32 0.34 0.34 0.32 0.32
0.56 0.56 0.56 0.58 0.58 0.56 0.54 0.52 0.50 0.48 0.44 0.42 0.40 0.40 0.40 0.40 0.38 0.38 0.36 0.34 0.32 0.32 0.32 0.34 0.36 0.36 0.38 0.36 0.36 0.34 0.32 0.32 0.32 0.32 0.30 0.30 0.30 0.29 0.29 0.27 0.27 0.27 0.27 0.27 0.25 0.25 0.27 0.27 0.27 0.27 0.27 0.27 0.27 0.25 0.25 0.27 0.27 0.29 0.30 0.30 0.29 0.29 0.29 0.27 0.29 0.30 0.30 0.30 0.30 0.30 0.30 0.30 0.30 0.30 0.30 0.30 0.30 0.30 0.32 0.32 0.32 0.32 0.34 0.34 0.34 0.34
0.60 0.60 0.60 0.60 0.58 0.54 0.52 0.50 0.44 0.42 0.40 0.40 0.40 0.40 0.40 0.38 0.38 0.36 0.34 0.34 0.32 0.32 0.34 0.36 0.38 0.38 0.36 0.34 0.32 0.32 0.30 0.30 0.30 0.30 0.30 0.29 0.29 0.29 0.29 0.27 0.27 0.27 0.27 0.27 0.27 0.27 0.27 0.27 0.27 0.29 0.29 0.29 0.29 0.27 0.27 0.27 0.27 0.29 0.29 0.30 0.30 0.30 0.30 0.30 0.30 0.30 0.29 0.30 0.30 0.30 0.30 0.30 0.30 0.30 0.30 0.30 0.30 0.30 0.32 0.32 0.32 0.32 0.32 0.34 0.36 0.36
0.62 0.62 0.60 0.58 0.54 0.52 0.48 0.44 0.42 0.40 0.40 0.40 0.38 0.38 0.38 0.38 0.36 0.36 0.34 0.32 0.32 0.34 0.36 0.38 0.38 0.36 0.32 0.32 0.30 0.30 0.29 0.29 0.29 0.29 0.29 0.27 0.27 0.27 0.29 0.29 0.29 0.29 0.29 0.29 0.29 0.29 0.29 0.27 0.29 0.29 0.29 0.29 0.27 0.27 0.29 0.29 0.29 0.29 0.30 0.30 0.30 0.30 0.30 0.30 0.30 0.30 0.30 0.29 0.30 0.30 0.30 0.32 0.32 0.30 0.30 0.30 0.30 0.30 0.32 0.32 0.32 0.34 0.34 0.36 0.36 0.36
0.60 0.60 0.60 0.56 0.52 0.48 0.44 0.42 0.40 0.38 0.38 0.38 0.38 0.36 0.36 0.36 0.36 0.36 0.34 0.32 0.34 0.34 0.36 0.38 0.38 0.36 0.32 0.30 0.30 0.29 0.27 0.25 0.25 0.25 0.27 0.25 0.27 0.27 0.27 0.29 0.29 0.29 0.30 0.29 0.30 0.30 0.30 0.29 0.29 0.29 0.29 0.27 0.27 0.29 0.29 0.29 0.29 0.29 0.29 0.29 0.29 0.29 0.29 0.29 0.29 0.30 0.30 0.30 0.30 0.32 0.32 0.32 0.30 0.30 0.30 0.30 0.30 0.32 0.32 0.34 0.34 0.34 0.34 0.36 0.36 0.36
0.60 0.58 0.58 0.54 0.52 0.48 0.44 0.40 0.38 0.38 0.36 0.36 0.36 0.36 0.36 0.36 0.36 0.34 0.32 0.32 0.34 0.38 0.38 0.38 0.36 0.32 0.30 0.30 0.29 0.27 0.25 0.25 0.25 0.25 0.25 0.25 0.25 0.27 0.27 0.29 0.29 0.30 0.30 0.30 0.30 0.30 0.30 0.30 0.30 0.30 0.30 0.29 0.27 0.27 0.29 0.29 0.30 0.30 0.30 0.29 0.29 0.29 0.27 0.29 0.29 0.30 0.30 0.30 0.32 0.32 0.32 0.32 0.30 0.30 0.30 0.30 0.30 0.30 0.32 0.32 0.34 0.36 0.36 0.38 0.38 0.38
0.58 0.56 0.56 0.50 0.46 0.42 0.38 0.38 0.36 0.36 0.34 0.34 0.34 0.34 0.36 0.36 0.34 0.34 0.32 0.34 0.36 0.38 0.38 0.36 0.32 0.30 0.29 0.29 0.27 0.27 0.25 0.23 0.23 0.23 0.25 0.25 0.25 0.27 0.27 0.29 0.29 0.29 0.30 0.30 0.30 0.30 0.30 0.30 0.30 0.30 0.30 0.30 0.29 0.29 0.29 0.29 0.30 0.30 0.30 0.29 0.29 0.29 0.29 0.29 0.30 0.30 0.30 0.32 0.32 0.32 0.32 0.32 0.32 0.32 0.32 0.30 0.30 0.30 0.32 0.32 0.34 0.36 0.36 0.38 0.38 0.38
0.56 0.54 0.50 0.44 0.40 0.38 0.36 0.36 0.34 0.34 0.34 0.34 0.34 0.34 0.36 0.34 0.34 0.32 0.34 0.36 0.38 0.38 0.36 0.34 0.32 0.29 0.29 0.27 0.25 0.25 0.23 0.23 0.23 0.23 0.23 0.25 0.27 0.27 0.27 0.29 0.29 0.29 0.29 0.29 0.29 0.29 0.29 0.29 0.30 0.30 0.30 0.30 0.30 0.30 0.29 0.29 0.29 0.29 0.29 0.29 0.29 0.29 0.29 0.29 0.29 0.30 0.30 0.32 0.32 0.32 0.32 0.34 0.34 0.34 0.32 0.30 0.30 0.30 0.30 0.30 0.32 0.34 0.36 0.38 0.38 0.40
0.54 0.50 0.42 0.40 0.36 0.36 0.34 0.34 0.34 0.32 0.32 0.34 0.34 0.36 0.34 0.34 0.32 0.34 0.34 0.38 0.38 0.38 0.36 0.34 0.30 0.27 0.25 0.25 0.25 0.23 0.23 0.23 0.23 0.23 0.25 0.27 0.27 0.27 0.27 0.29 0.29 0.27 0.27 0.27 0.25 0.25 0.25 0.25 0.27 0.27 0.27 0.30 0.32 0.32 0.30 0.29 0.29 0.29 0.27 0.29 0.29 0.30 0.29 0.29 0.30 0.30 0.32 0.32 0.32 0.32 0.32 0.32 0.32 0.32 0.32 0.32 0.30 0.29 0.30 0.30 0.32 0.34 0.36 0.38 0.38 0.40
Wind_Speed
21 21 21 22 22 23 23 23 24 24 25 26 26 27 27 27 28 28 28 29 29 30 31 31 32 32 33 33 34 34 34 35 35 36 36 37 38 38 39 39 40 40 41 42 43 43 44 45 45 46 46 46 46 46 46 47 47 47 48 48 49 49 50 50 50 51 51 51 52 52 52 51 51 51 51 50 50 50 51 51 52 52 53 53 53 53
21 21 21 22 22 22 23 24 24 24 25 26 26 26 27 27 27 28 28 29 30 30 31 32 32 32 33 33 34 34 35 35 36 36 37 37 38 38 39 39 40 41 41 42 43 44 44 45 45 46 46 46 46 46 46 47 47 48 48 49 49 49 50 50 50 51 51 52 52 52 52 51 51 51 50 50 50 50 51 51 52 53 53 53 53 52
21 21 22 22 22 22 23 24 24 24 25 26 26 26 26 27 27 28 28 29 30 31 31 32 32 32 33 33 34 34 35 36 36 37 37 38 38 39 39 40 40 41 42 42 43 44 44 45 45 46 46 46 46 46 47 47 47 48 48 49 49 49 50 50 51 51 51 52 52 52 51 51 51 50 50 50 50 51 51 52 52 53 53 53 52 50
21 21 22 22 22 23 23 24 24 25 25 26 26 26 26 27 27 28 29 29 30 31 31 32 32 32 33 34 34 35 35 36 36 37 37 38 38 39 39 40 40 41 42 43 43 44 45 45 45 45 46 46 46 46 47 47 47 48 48 49 49 49 50 50 51 51 52 52 51 51 51 50 50 50 50 50 50 51 52 52 53 53 52 52 50 49
21 21 22 22 22 23 23 24 24 25 25 26 26 26 26 27 27 28 29 30 30 31 31 32 32 33 33 34 34 35 35 36 37 37 38 38 38 39 39 40 41 41 42 43 44 44 45 45 45 45 46 46 46 46 46 47 47 48 48 48 49 49 50 51 51 51 51 51 51 50 50 50 49 50 50 50 51 51 52 52 52 52 51 50 48 47
21 21 22 22 22 23 23 24 24 25 25 26 26 26 26 27 28 28 29 30 30 31 31 32 32 33 33 34 34 35 35 36 37 37 38 38 38 39 39 40 41 42 43 43 44 44 45 45 45 46 46 46 46 46 46 47 47 48 48 48 49 49 50 51 51 51 51 50 50 49 49 49 49 50 50 50 51 52 52 52 52 51 50 48 46 44
21 21 22 22 22 23 23 24 24 25 25 26 26 26 27 27 28 29 29 30 30 31 31 32 33 33 33 34 34 35 35 36 37 37 38 38 38 39 40 41 41 42 43 43 44 44 45 45 45 45 46 46 46 46 46 47 47 47 48 48 49 49 50 50 50 50 50 49 49 49 49 49 49 50 50 51 51 52 52 52 51 49 48 46 44 42
21 21 22 22 22 23 23 24 24 25 25 26 26 27 27 28 28 29 29 30 30 31 32 32 32 33 33 33 34 35 35 36 37 37 38 38 38 39 40 41 42 42 43 43 44 44 45 45 45 45 45 45 45 46 46 47 47 47 48 48 49 49 50 50 50 49 49 49 49 49 49 49 49 50 50 51 51 52 51 51 49 48 46 44 42 40
21 21 22 22 22 23 23 24 24 25 25 25 26 27 28 28 29 29 30 30 30 31 32 32 32 32 33 33 34 34 35 36 37 37 38 38 39 40 41 41 42 42 43 43 44 44 44 45 45 45 45 45 45 45 46 46 47 47 48 49 49 49 49 49 49 49 49 48 48 49 49 49 50 50 51 51 51 51 50 49 48 46 44 42 40 38
21 21 22 22 23 23 23 24 24 25 25 25 26 26 27 28 29 30 30 30 31 31 32 32 32 33 33 33 33 34 35 36 37 37 38 38 39 40 41 41 42 42 43 43 44 44 44 44 45 45 44 45 45 45 46 46 47 48 48 49 49 49 49 49 49 48 48 48 48 48 49 49 50 50 51 51 51 50 49 48 46 44 42 40 38 36
21 22 22 22 23 23 23 24 24 25 25 26 26 27 27 28 29 30 31 31 32 32 32 32 32 32 33 33 34 34 35 36 37 37 38 39 39 40 41 42 42 42 43 43 44 44 44 44 44 44 44 44 45 45 46 47 47 48 48 48 49 49 49 48 48 48 48 48 48 48 49 49 50 50 51 51 50 49 48 46 44 42 40 38 36 34
21 22 22 23 23 24 24 24 25 25 26 26 27 28 29 29 30 30 31 31 32 32 32 32 32 32 33 33 34 34 35 36 37 37 38 39 40 41 41 41 42 42 43 43 43 43 44 44 44 44 44 44 45 45 46 47 47 48 48 48 48 48 48 48 48 47 47 48 48 48 49 50 50 50 50 50 49 48 46 44 42 40 38 36 34 32
22 22 22 23 23 24 24 25 25 26 26 27 28 28 30 30 30 31 31 31 31 32 32 33 33 33 33 33 34 35 36 36 37 38 39 39 40 41 41 41 42 42 43 43 43 43 43 43 43 43 43 44 45 45 46 47 47 48 48 48 48 48 47 47 47 47 47 48 48 49 49 50 50 50 50 49 48 46 45 43 41 39 36 34 32 31
22 22 23 23 24 24 25 25 26 26 27 28 28 29 30 30 31 31 31 31 31 31 32 32 33 34 34 34 34 35 36 37 38 39 39 40 40 41 41 41 41 42 42 42 42 43 43 43 43 43 43 44 45 46 46 47 47 48 48 48 47 47 47 47 47 47 48 48 48 49 50 50 50 50 49 48 46 45 43 41 39 37 34 33 31 30
22 23 23 23 24 25 25 26 26 27 28 28 29 29 30 30 31 30 30 30 31 32 32 33 34 34 34 34 35 36 37 38 39 39 40 40 41 41 41 41 41 42 42 42 42 42 43 43 43 43 43 44 45 46 46 47 47 48 48 47 47 47 47 47 47 47 48 48 49 49 50 50 50 49 48 47 45 43 41 39 37 35 33 31 30 29
22 23 23 24 24 25 26 26 27 27 28 29 29 30 30 30 30 30 30 30 31 32 33 34 34 35 35 35 35 36 38 39 40 40 41 41 41 41 42 41 41 42 41 41 41 42 43 43 43 43 43 44 45 46 46 47 47 48 47 47 47 47 47 47 47 47 48 48 49 49 50 50 49 48 47 45 44 42 40 38 35 33 32 30 29 29
23 23 23 24 25 25 26 27 27 28 29 29 29 30 30 30 30 30 30 31 32 33 34 35 35 35 36 36 37 38 39 40 40 41 41 41 41 42 42 41 41 41 41 41 41 42 42 43 43 43 44 44 45 46 46 47 47 47 47 47 47 47 47 47 47 47 48 48 49 49 49 49 48 47 46 44 43 41 38 36 34 32 31 29 29 29
23 23 24 25 25 26 27 27 28 28 29 29 30 30 30 30 30 30 30 31 32 34 35 36 36 36 36 37 38 39 40 40 41 41 41 41 41 42 42 41 41 41 41 41 41 42 42 42 43 43 44 45 45 46 46 47 47 47 47 46 46 46 46 47 47 48 48 49 49 49 49 48 47 46 45 43 41 39 37 34 33 32 30 29 29 30
23 24 24 25 26 26 27 27 28 28 29 29 30 30 30 30 30 30 31 32 33 35 36 36 36 37 37 38 39 40 40 40 40 41 41 41 42 42 42 41 41 41 40 41 41 42 43 43 43 43 44 45 45 46 46 47 47 47 46 46 46 46 46 47 47 48 48 49 49 49 48 48 47 45 44 42 40 38 35 33 32 31 30 30 30 30
24 24 25 25 26 27 27 28 28 28 29 29 30 30 30 30 30 31 32 33 35 35 36 36 37 37 38 39 39 40 40 40 40 41 41 41 41 41 41 41 40 40 40 40 41 42 43 43 43 43 44 45 45 46 46 47 46 46 46 46 46 46 46 47 47 48 48 49 49 48 48 47 46 44 42 40 38 36 34 32 31 31 30 30 30 30
24 25 25 25 26 26 27 28 28 29 29 30 30 30 30 30 31 31 33 34 36 36 36 37 37 38 38 39 39 39 40 40 40 41 41 41 41 41 41 40 40 40 40 41 41 42 43 43 43 43 44 44 45 46 46 46 46 46 45 45 46 46 46 47 47 48 48 49 48 48 47 46 44 43 41 39 37 34 33 32 31 31 30 30 30 30
24 25 25 25 26 26 27 28 28 29 29 29 30 30 30 31 31 33 35 36 36 36 36 37 37 38 38 38 39 39 40 40 40 41 41 41 41 40 40 40 40 40 40 41 42 42 43 43 43 43 44 44 45 45 46 46 46 45 45 45 45 46 46 47 47 48 48 48 48 47 46 44 43 41 39 37 35 33 32 31 31 31 30 30 29 29
24 24 25 25 26 26 27 28 28 29 29 30 30 30 30 31 32 34 35 36 36 36 36 37 37 37 37 38 38 39 40 40 40 40 40 40 40 40 40 40 40 40 40 41 42 42 43 43 43 43 44 44 45 45 45 45 45 45 45 45 45 46 46 47 47 48 48 47 47 46 44 43 41 39 37 35 34 32 31 31 30 30 30 29 28 27
24 24 25 25 26 27 28 28 29 30 30 30 30 31 31 32 33 34 35 35 35 36 36 36 37 37 37 38 38 39 39 39 39 39 39 39 39 39 39 39 40 40 41 41 42 42 42 43 43 43 43 44 44 45 45 45 45 45 45 45 45 46 46 47 47 47 47 46 45 44 43 41 40 38 36 34 32 31 30 30 30 30 29 28 27 26
24 24 25 26 27 27 28 29 30 30 31 31 31 32 32 33 34 35 35 35 35 36 36 36 36 37 37 38 38 39 39 39 38 38 38 38 39 39 39 39 40 40 41 41 42 42 42 42 43 43 43 44 44 44 44 44 44 44 45 45 46 46 46 47 47 46 46 45 44 43 41 40 38 36 34 33 31 30 30 30 29 29 28 27 26 25
24 25 26 26 27 28 29 30 31 31 31 31 32 32 33 33 34 34 35 35 35 36 36 36 36 36 37 38 38 39 39 38 38 37 37 38 38 39 39 39 40 40 41 42 42 42 42 42 42 42 43 43 44 44 44 44 44 44 45 45 46 46 46 46 46 45 44 44 43 41 40 38 36 34 33 32 31 30 29 29 29 28 27 26 25 24
25 26 26 27 28 29 30 30 31 31 32 32 32 32 32 33 34 34 35 35 35 35 35 35 36 37 37 38 38 38 38 37 37 37 37 38 38 38 39 40 40 41 41 42 42 42 42 42 42 42 42 43 43 43 43 44 44 44 45 45 46 46 46 46 45 44 43 42 41 39 38 36 34 33 32 31 30 29 29 29 28 27 26 25 24 23
26 26 27 28 29 29 30 31 31 31 31 31 32 32 32 33 33 34 34 35 35 35 35 35 36 36 37 37 38 38 37 36 36 37 37 37 37 38 39 40 40 41 42 42 42 42 42 42 42 42 42 42 43 43 43 43 44 44 45 45 46 46 46 45 44 43 42 40 39 37 36 34 32 31 30 30 29 29 28 28 27 26 25 24 23 22
26 27 28 28 29 29 30 30 30 30 31 31 31 32 32 32 33 33 34 34 34 34 35 35 36 36 37 37 38 37 36 35 36 37 38 38 37 38 39 40 40 41 42 42 42 42 41 41 41 42 42 42 42 42 43 43 43 44 45 45 45 45 45 44 43 41 40 39 37 35 34 32 31 30 29 29 29 28 28 27 26 25 24 23 22 21
27 28 28 28 29 29 29 29 30 30 30 31 31 32 32 32 32 32 33 33 34 34 35 36 36 36 37 37 37 36 35 35 36 37 38 38 38 38 40 40 40 41 42 42 42 42 42 42 41 41 42 42 42 42 42 43 43 44 44 45 45 44 43 42 41 40 38 37 35 33 32 31 30 29 28 28 28 27 27 26 25 24 23 22 21 20
27 28 28 28 28 29 29 29 29 30 30 31 31 31 32 32 32 32 32 33 33 34 35 36 36 36 36 36 36 35 35 35 37 38 38 37 38 39 39 40 41 41 41 41 41 42 42 42 42 42 42 42 42 42 42 42 43 43 44 44 43 43 42 41 40 38 37 35 33 31 30 29 29 28 28 27 27 26 26 26 25 23 22 21 21 20
27 27 27 28 28 28 28 28 29 29 30 31 31 31 32 32 32 32 32 33 33 34 35 35 36 36 36 35 35 34 35 36 37 38 38 38 38 39 39 40 40 41 41 41 41 41 41 42 42 42 42 41 41 41 42 42 42 43 43 42 42 41 41 40 38 36 35 33 31 30 29 28 28 27 27 26 26 25 25 25 24 23 22 21 20 19
27 27 27 27 27 28 28 28 29 29 30 30 30 31 31 32 32 32 33 33 33 34 35 35 36 36 36 35 35 35 35 36 37 38 38 38 38 39 39 40 40 41 41 41 41 41 40 41 42 42 42 41 41 41 42 42 42 42 42 41 40 39 39 38 36 34 33 31 29 28 28 27 27 27 26 26 25 25 24 24 23 23 21 20 19 19
27 27 27 27 28 28 28 28 29 29 29 29 30 30 31 32 32 33 33 34 34 34 35 35 35 35 35 35 35 35 35 36 37 38 38 38 38 38 39 40 40 41 41 41 41 41 40 41 41 41 42 42 41 41 41 42 42 42 41 40 39 38 37 36 34 32 31 29 27 27 26 26 26 26 25 25 25 24 24 23 23 22 21 20 19 18
27 28 28 28 29 29 29 29 29 29 29 29 29 30 31 32 32 33 34 34 35 35 35 35 35 35 35 35 35 35 35 36 37 38 38 38 38 38 39 39 40 40 41 41 40 40 40 40 41 41 41 41 41 41 41 41 41 41 40 39 37 36 35 34 32 30 29 27 26 25 25 25 25 25 25 25 24 24 23 23 22 22 21 20 19 18
28 29 29 29 30 30 30 30 30 29 29 29 29 30 31 32 33 33 34 35 35 36 36 35 35 34 34 34 34 35 35 36 37 38 38 37 37 38 38 39 39 40 40 40 40 40 40 40 40 40 41 41 41 41 41 41 40 39 38 37 36 34 33 31 30 28 27 26 25 25 24 24 24 24 24 24 24 24 23 22 22 21 21 20 19 18
29 30 30 30 30 31 31 30 30 30 30 29 30 30 31 32 33 34 34 35 36 36 36 35 35 34 34 34 34 34 35 36 37 37 37 37 37 37 38 39 39 39 39 39 39 39 39 40 40 40 40 40 40 41 41 41 40 39 37 36 34 32 31 29 28 27 25 25 24 24 24 24 24 24 24 24 24 23 23 22 21 21 20 20 19 18
30 30 30 31 31 31 31 31 30 30 29 29 30 30 31 32 32 33 34 35 35 35 35 35 34 34 34 34 34 35 35 36 36 37 37 37 37 37 38 38 39 39 39 38 39 39 39 39 39 40 40 40 40 40 40 40 39 38 36 35 32 30 28 27 26 25 24 24 24 24 24 24 24 24 23 23 23 22 22 21 21 21 20 20 19 18
30 30 30 30 30 30 30 30 30 29 29 29 30 30 31 31 32 33 33 34 34 35 34 34 34 34 34 34 34 34 35 35 36 36 36 37 37 37 38 38 38 38 38 38 38 38 38 38 39 39 39 40 40 40 39 38 37 36 35 33 31 29 27 26 25 24 23 23 23 23 23 23 23 23 23 23 22 21 21 20 20 20 20 19 19 18
29 29 29 29 30 30 30 29 29 29 29 29 30 30 30 31 31 32 33 33 33 33 34 33 33 33 33 34 34 34 35 35 35 36 36 37 37 37 37 38 38 38 38 38 38 38 38 38 39 39 39 39 39 39 38 37 36 35 34 32 29 28 26 25 24 23 23 23 23 23 23 23 23 23 23 22 22 21 20 20 20 20 19 19 19 18
29 29 29 29 29 29 29 28 28 28 28 29 29 29 30 30 30 31 31 32 32 32 33 33 33 33 33 33 34 34 34 35 35 36 36 37 37 38 37 37 37 37 37 37 37 38 38 38 38 39 39 38 38 37 37 36 35 34 32 30 28 26 25 24 23 23 22 22 22 22 23 23 23 23 22 22 21 20 20 19 19 19 19 19 19 18
28 28 28 28 28 28 28 28 28 28 29 29 29 29 29 29 30 31 31 32 32 32 32 32 32 32 33 33 33 33 34 35 35 36 36 37 37 38 37 37 37 36 37 37 37 37 37 37 38 38 38 37 36 35 35 34 33 32 30 28 26 25 24 23 22 22 22 22 22 22 22 22 23 22 22 21 20 20 20 19 19 19 19 19 19 18
28 28 28 28 28 28 27 27 27 28 28 28 28 28 28 29 29 30 31 31 32 32 32 32 32 32 32 33 33 33 34 34 35 36 36 37 38 38 38 37 36 36 36 36 37 37 37 37 37 37 36 36 35 34 33 32 31 30 28 26 25 24 23 23 22 22 22 22 22 22 22 22 22 22 21 20 20 19 19 19 19 19 19 19 19 19
28 28 28 28 28 27 27 27 27 28 28 28 27 27 28 28 29 30 31 31 32 32 32 32 32 32 32 32 33 33 34 34 35 36 36 37 37 38 38 37 36 36 35 35 36 36 37 37 36 36 35 34 33 32 31 30 29 28 27 25 24 23 22 22 22 22 22 22 22 22 22 22 22 21 21 20 19 19 19 19 19 19 20 20 19 19
28 28 28 28 28 27 27 27 27 27 27 26 26 27 28 29 29 30 31 32 32 32 32 32 32 32 32 32 33 33 34 34 35 36 37 37 37 38 37 36 36 35 35 35 35 35 35 35 35 35 34 32 31 30 29 28 28 27 26 24 23 22 22 21 21 21 21 22 22 22 22 22 21 21 20 20 19 19 20 20 20 20 20 20 20 20
28 28 28 28 28 28 27 27 27 26 26 26 26 27 28 29 30 31 31 32 32 32 32 31 31 31 32 32 33 34 34 35 35 36 36 37 37 37 37 36 35 35 35 35 34 34 34 33 33 32 32 31 29 28 27 26 26 25 24 24 23 22 21 21 21 21 21 21 22 22 22 21 21 21 20 20 20 20 20 20 21 21 21 21 21 20
27 27 27 28 28 27 27 26 26 25 25 25 26 27 29 30 30 31 31 31 31 31 31 31 31 31 32 32 33 34 34 35 35 36 36 36 36 36 37 36 36 35 35 34 34 33 32 31 31 30 29 28 27 27 26 25 25 24 23 23 22 22 21 21 21 21 21 21 21 21 22 21 21 20 20 20 20 20 21 21 21 21 21 21 21 21
26 26 26 27 26 26 25 25 25 25 25 26 27 28 29 30 31 31 31 31 31 31 31 31 31 31 32 33 33 34 34 35 35 35 36 36 36 36 35 35 35 35 34 34 33 32 31 30 28 28 27 26 25 25 25 24 24 23 23 22 22 22 21 21 21 21 21 21 21 21 21 20 20 20 20 20 20 21 21 21 22 22 21 21 21 21
24 24 25 25 24 24 24 24 24 25 26 27 28 29 30 30 31 31 31 31 31 30 30 31 31 32 32 33 33 34 34 34 35 35 35 35 35 35 35 35 34 34 33 32 32 31 30 28 27 25 24 24 24 24 24 23 23 22 22 22 22 21 21 21 21 21 21 21 21 20 20 20 20 20 20 20 21 21 21 22 22 22 22 21 21 21
23 23 23 23 22 22 23 23 24 26 27 28 29 29 30 30 30 30 30 30 30 30 30 31 31 32 32 33 34 34 34 34 34 34 34 35 35 35 34 34 34 33 32 31 31 30 29 28 26 24 23 23 22 22 22 22 22 22 22 21 21 21 21 21 20 20 20 20 20 20 19 19 20 20 20 21 21 21 21 22 22 22 22 22 22 21
21 21 22 21 21 22 23 24 25 26 27 28 29 29 30 30 30 30 30 30 30 30 30 31 31 32 32 33 34 34 34 34 34 34 34 34 34 34 34 34 33 32 31 31 30 29 28 27 25 24 23 23 22 22 21 21 22 22 21 21 21 21 21 20 20 20 20 20 19 19 19 19 20 20 21 21 21 21 21 21 22 22 22 22 22 21
Wind_Direction
297 298 300 301 301 302 302 303 304 304 305 305 306 306 307 308 308 309 309 310 310 311 312 312 313 313 314 314 315 315 316 316 317 317 317 318 318 318 319 319 320 320 321 321 321 322 322 322 321 321 321 321 321 321 321 321 321 321 321 321 320 320 320 319 319 319 319 320 320 320 320 320 319 319 319 319 318 318 318 317 317 317 317 317 316 316
298 298 300 301 302 302 302 303 304 304 305 306 306 306 307 307 308 309 309 310 311 311 312 313 313 314 314 314 315 315 316 317 317 318 318 318 319 319 319 320 320 321 321 322 322 322 322 322 322 322 322 322 322 322 322 322 322 321 321 321 321 320 320 320 320 320 320 320 321 321 320 320 320 320 319 319 318 318 318 318 317 317 317 317 317 317
298 299 300 301 302 302 302 303 304 304 305 306 306 307 307 307 308 308 309 310 311 312 313 313 313 314 314 315 315 316 316 317 318 318 319 319 319 320 320 321 321 322 322 322 322 322 322 322 322 322 322 322 322 322 322 322 322 321 321 321 321 321 321 321 321 321 321 321 321 321 321 321 320 320 319 319 319 318 318 318 318 318 318 318 318 318
298 299 300 301 301 302 302 303 304 305 306 306 307 307 308 308 308 309 309 310 311 312 313 314 314 314 314 315 315 316 317 318 318 319 319 320 320 321 321 322 322 322 323 323 323 323 322 322 322 322 322 322 322 322 322 322 322 321 321 321 321 321 321 322 322 322 322 322 322 322 322 321 321 320 320 320 319 319 319 319 319 319 319 319 318 318
298 299 300 301 302 302 303 304 305 306 307 307 308 308 308 308 309 309 310 311 312 312 313 314 314 314 315 315 316 317 317 318 319 319 320 321 321 322 322 323 323 323 323 323 323 323 323 323 323 323 323 323 323 322 322 322 322 321 321 322 322 322 322 323 323 323 323 323 323 322 322 321 321 321 321 320 320 320 320 320 320 320 320 319 319 318
298 299 300 301 302 303 304 305 306 307 308 308 308 309 309 309 309 310 311 311 312 313 314 315 315 315 316 316 317 317 318 319 319 320 321 322 322 323 323 323 323 323 323 323 323 323 323 323 323 323 323 323 323 322 322 322 322 322 322 322 323 323 323 324 324 324 324 324 323 323 322 322 322 321 321 322 321 321 321 321 321 321 320 320 320 319
298 299 300 301 302 303 304 306 307 308 309 309 309 309 310 310 311 311 312 312 313 314 315 315 316 316 317 317 317 318 318 319 320 321 321 322 323 323 323 324 324 324 324 324 324 323 323 323 323 323 323 323 323 322 322 322 322 322 323 323 323 324 324 324 325 325 325 324 324 323 323 322 322 322 322 322 322 322 322 322 322 321 321 321 320 320
299 300 301 302 303 304 305 306 308 309 309 310 310 311 311 311 312 312 312 313 314 315 316 317 317 317 317 317 318 318 319 320 320 321 322 323 323 323 324 324 324 324 324 324 324 324 323 323 323 323 323 323 323 323 323 323 323 323 323 324 324 325 325 325 325 325 325 324 324 324 323 323 323 323 323 323 323 323 323 323 322 322 322 321 321 320
299 300 301 302 304 305 306 307 308 309 310 310 311 311 312 313 313 313 314 314 315 316 317 318 318 318 317 318 318 319 319 320 321 322 322 323 323 324 324 324 325 325 325 324 324 324 324 324 323 323 323 323 323 323 323 323 323 324 324 325 325 325 325 325 325 325 325 324 324 324 324 324 324 324 324 324 324 324 323 323 323 323 322 321 321 320
299 300 302 303 304 305 307 307 308 309 310 311 311 312 313 314 314 314 315 315 316 317 318 318 318 318 317 318 318 319 320 320 321 322 323 323 324 324 325 325 325 325 325 325 324 324 324 324 323 323 323 324 324 324 324 324 324 324 325 325 326 326 326 326 325 325 325 325 325 325 325 325 325 325 325 325 325 324 324 324 324 323 323 322 321 320
300 301 302 304 305 306 307 307 308 309 311 311 312 312 313 314 315 315 315 316 317 318 318 318 318 317 317 318 318 319 320 320 321 322 323 324 324 325 325 325 325 325 325 325 324 324 324 324 324 324 324 324 324 325 325 325 325 325 326 326 326 326 326 326 326 326 326 326 326 326 326 326 326 326 326 326 325 325 325 325 324 324 323 322 321 320
301 302 303 304 306 307 307 308 309 310 311 312 312 312 313 314 315 315 315 316 316 317 318 318 317 317 317 317 318 319 320 320 321 322 323 324 325 325 325 325 325 325 325 325 324 324 324 324 324 324 325 325 325 325 325 325 326 326 326 327 327 327 327 327 327 327 327 327 327 327 327 326 326 326 326 326 326 326 326 326 325 324 323 322 321 320
302 304 304 305 306 307 308 309 310 310 311 312 312 312 313 314 314 315 315 315 316 317 317 317 317 316 316 316 318 319 320 321 322 322 323 324 325 325 325 325 325 325 325 325 324 324 324 325 325 325 325 325 325 326 326 326 327 327 327 327 327 327 327 327 327 327 327 327 327 327 327 327 327 327 327 327 327 327 327 327 326 325 324 323 321 321
304 305 305 306 307 308 309 309 310 310 311 311 311 312 312 313 314 314 315 315 316 316 316 316 315 315 315 316 318 319 320 321 322 323 324 324 325 325 325 325 324 325 325 325 324 325 325 325 325 325 326 326 326 326 326 327 327 327 327 327 327 327 328 328 328 328 328 328 328 328 328 328 328 328 328 328 328 328 328 327 327 326 324 323 322 321
305 305 306 306 307 308 309 309 310 310 310 310 311 311 312 312 313 314 315 315 315 315 315 314 314 314 315 316 318 320 321 322 323 323 324 324 325 325 325 325 324 325 325 325 325 325 325 326 326 326 326 326 326 327 327 328 328 328 328 328 328 328 328 328 328 328 328 328 329 329 329 329 329 329 329 329 329 329 329 328 327 326 325 324 323 323
305 306 307 307 307 308 308 309 309 310 310 310 311 311 312 313 313 314 314 314 314 314 314 313 313 314 315 317 319 320 322 322 323 323 323 324 324 325 326 325 325 325 325 325 325 325 326 326 326 326 326 326 327 327 328 328 328 328 328 328 328 329 329 329 329 329 329 329 329 329 329 330 330 330 330 330 330 330 330 329 328 327 326 325 325 325
306 306 307 307 308 308 309 309 310 310 310 311 311 312 312 312 313 314 314 313 313 312 312 312 313 313 315 317 319 320 322 322 322 323 323 323 324 325 326 325 325 325 325 326 326 326 326 326 327 327 327 327 327 328 328 328 328 328 328 329 329 329 329 329 330 330 330 330 330 330 330 330 331 331 331 331 331 331 331 330 329 329 328 327 327 327
306 307 308 308 308 309 309 310 310 310 311 311 311 312 312 312 313 313 313 312 312 312 312 313 313 314 315 317 318 320 322 322 322 322 323 323 324 325 326 326 326 326 326 326 326 326 327 327 327 327 327 327 328 328 329 329 329 329 329 329 330 330 330 330 330 330 330 330 331 331 331 331 332 332 332 332 332 331 331 331 330 330 329 330 329 329
307 307 308 309 309 309 310 310 311 311 311 312 312 312 313 313 313 313 313 312 312 312 312 313 314 315 316 316 317 319 321 322 322 322 323 323 323 324 325 326 326 326 326 326 326 327 327 327 327 328 328 328 328 329 329 329 329 329 330 330 330 330 330 331 331 331 331 331 331 332 332 332 332 332 332 332 332 332 332 331 331 331 331 331 331 331
308 308 309 309 310 310 311 311 311 312 312 312 313 313 313 313 313 313 313 312 312 313 313 314 315 315 316 317 318 319 321 322 322 322 323 323 323 324 325 326 327 326 326 327 327 327 328 328 328 328 328 328 329 329 330 330 330 330 331 331 331 331 331 331 331 331 331 332 332 332 333 333 333 333 333 333 333 333 332 332 332 332 332 332 332 332
309 309 309 310 311 311 312 312 312 313 313 313 314 314 313 313 313 313 313 313 314 314 315 315 316 317 317 317 318 320 321 322 323 323 322 323 324 325 326 327 327 327 327 327 327 328 328 328 328 328 328 329 329 330 330 330 331 331 331 331 331 331 331 332 332 332 332 332 333 333 333 333 333 333 333 333 333 333 333 333 333 333 333 333 333 332
310 310 310 311 312 312 313 313 313 314 314 314 314 314 313 313 313 313 313 314 315 316 316 317 317 318 318 318 319 320 321 322 323 323 323 323 324 325 326 327 327 327 327 327 328 328 328 329 329 329 329 329 330 330 331 331 331 332 332 332 332 332 332 332 332 332 333 333 333 334 334 334 334 334 334 334 334 334 334 334 334 334 334 333 333 333
311 311 312 312 313 313 314 314 314 314 314 314 314 313 312 312 312 313 314 316 317 317 317 318 318 319 319 320 320 321 322 322 323 323 324 324 325 326 327 327 327 327 327 328 328 328 329 329 329 329 329 330 330 331 331 332 332 332 332 332 332 332 332 333 333 333 333 334 334 334 334 335 335 335 335 335 335 335 335 335 335 335 334 334 334 334
312 312 313 313 314 314 314 315 315 314 314 313 313 312 312 312 313 315 317 318 319 319 319 319 319 320 320 321 321 322 322 323 323 324 325 325 325 326 327 328 328 328 327 328 328 329 329 329 329 329 330 330 331 331 332 332 333 333 333 333 333 333 333 333 333 333 334 334 335 335 335 335 335 336 336 336 336 336 336 336 336 335 335 335 335 335
313 313 313 314 314 314 315 315 315 314 314 313 312 312 312 313 315 317 319 320 320 320 320 320 320 321 321 322 322 323 323 323 324 325 326 326 326 326 327 328 328 328 328 328 329 329 329 329 330 330 330 331 331 332 332 333 333 333 333 333 333 333 333 334 334 334 334 335 335 336 336 336 336 337 337 338 338 338 338 337 337 336 336 336 336 337
313 314 314 314 315 315 315 316 316 315 314 313 313 312 313 314 317 319 320 321 321 321 321 321 321 321 322 322 323 323 323 324 324 325 327 327 326 327 327 328 328 328 328 329 329 329 330 330 330 331 331 331 332 332 333 333 333 333 333 333 333 334 334 334 334 335 335 336 336 336 337 337 338 338 339 339 339 339 339 339 338 338 338 338 338 339
315 315 316 316 316 316 316 316 316 315 315 314 314 314 315 317 318 320 321 321 321 321 322 322 322 322 322 323 323 323 324 324 325 326 327 327 327 327 327 328 328 328 329 329 329 330 330 330 331 331 332 332 332 333 333 333 334 334 334 334 334 334 334 335 335 335 336 336 337 337 338 338 339 340 340 341 341 341 341 341 340 340 340 340 340 341
316 316 316 316 316 316 317 317 316 316 315 315 315 316 317 319 320 321 321 321 322 322 322 322 322 322 323 323 323 324 324 325 326 327 328 328 327 327 327 328 328 329 329 329 330 330 330 331 331 332 332 332 333 333 333 334 334 334 334 334 334 335 335 335 336 336 337 337 338 338 339 340 341 341 342 343 343 343 343 343 342 342 342 342 343 343
315 315 316 316 316 317 317 317 317 317 316 317 317 318 319 320 321 322 322 322 323 323 323 323 323 323 323 323 323 324 325 326 326 327 328 328 328 327 328 328 329 329 330 330 330 330 331 332 332 332 332 333 333 334 334 334 334 334 334 335 335 335 336 336 337 337 338 339 339 340 340 341 342 343 344 344 345 345 345 345 345 345 345 345 345 346
315 315 315 316 316 317 317 317 317 317 317 318 319 320 321 322 322 322 323 323 324 324 324 323 323 323 323 324 324 325 326 326 327 328 329 328 328 327 328 328 329 330 330 330 331 331 331 332 333 333 333 333 334 334 334 334 334 334 335 335 335 336 336 337 337 338 339 340 341 341 342 343 344 345 345 346 347 347 347 348 348 348 347 348 348 349
314 314 315 315 316 317 317 317 318 318 318 319 320 321 322 323 323 324 324 325 325 325 324 323 323 323 324 325 325 326 326 327 327 328 329 329 328 327 328 329 329 330 331 331 331 331 331 332 333 333 334 334 334 335 335 335 335 335 335 335 336 336 337 337 338 339 340 341 342 343 344 345 346 346 347 348 349 349 350 350 350 350 350 351 351 352
315 316 316 316 317 317 318 318 318 318 319 320 321 322 323 324 325 325 326 326 325 325 325 324 324 324 324 325 325 326 326 327 327 328 329 329 328 328 328 329 329 330 331 331 331 331 331 331 333 334 334 334 335 335 335 335 335 335 335 336 336 337 337 338 339 340 342 343 344 345 346 347 347 348 349 350 350 351 352 352 353 353 353 354 354 355
316 316 317 318 318 318 318 318 318 319 319 320 322 323 325 326 326 327 327 326 326 326 325 325 325 325 325 325 325 326 326 327 328 329 329 328 328 328 328 329 329 330 331 331 331 331 331 332 332 333 334 335 335 335 335 335 335 335 336 336 337 337 338 339 340 341 343 345 346 347 347 348 349 350 350 351 352 353 353 354 355 355 356 356 357 357
316 317 317 318 319 319 319 319 319 319 320 321 323 324 325 326 327 327 327 327 326 326 326 326 325 326 326 326 326 326 326 327 328 329 329 329 328 328 329 329 330 331 331 332 332 332 332 333 333 334 334 335 335 336 336 336 336 336 336 337 337 338 338 339 341 343 344 346 347 348 349 350 350 351 352 352 353 354 355 355 356 357 358 359 359 360
316 317 317 318 318 318 318 318 319 320 321 322 324 325 326 326 327 327 327 327 327 326 326 326 326 326 327 327 327 327 327 328 328 329 329 329 329 329 329 330 331 331 332 332 333 333 333 334 334 335 335 335 335 336 336 336 336 336 337 337 338 339 340 341 342 344 346 348 349 350 351 351 352 352 353 353 353 354 355 356 357 358 360 1 2 2
317 318 318 319 319 319 319 319 320 321 322 323 324 325 325 326 326 326 327 327 327 326 326 326 326 327 328 328 328 327 327 328 329 329 330 330 330 330 330 330 331 332 332 333 333 334 334 334 335 335 336 336 336 336 336 336 337 337 338 338 339 340 341 343 344 346 348 349 350 351 352 353 354 354 354 353 354 355 356 357 358 360 1 2 3 4
321 321 321 321 320 320 320 320 321 322 323 323 324 324 325 325 326 326 326 326 327 327 327 327 327 328 328 329 329 328 328 328 329 330 330 331 331 331 331 331 332 333 333 333 334 334 335 335 335 336 336 337 336 336 336 336 337 338 339 340 341 342 343 345 346 348 350 350 351 352 354 354 355 354 354 354 355 356 357 359 0 1 2 3 4 5
324 324 324 323 322 322 322 322 322 323 323 324 324 324 325 325 325 326 326 326 327 327 327 328 329 329 330 330 329 329 329 329 330 330 331 331 331 331 332 332 333 333 334 334 334 334 335 335 336 336 336 336 336 336 336 337 338 338 339 340 342 344 346 347 349 350 352 352 353 353 354 355 356 356 355 356 356 358 360 1 3 4 4 5 5 6
326 326 325 325 324 324 323 323 323 323 323 324 325 325 325 325 326 326 326 327 327 328 328 329 330 330 331 331 331 330 330 330 331 331 332 332 332 332 333 333 334 334 334 334 335 335 335 335 336 336 336 336 336 336 337 338 338 339 340 342 344 346 349 350 352 353 353 354 354 355 355 356 357 357 357 358 359 0 2 4 5 6 6 7 7 6
326 326 326 325 325 324 324 323 323 323 323 325 326 326 327 327 327 327 327 328 328 329 330 330 331 331 331 331 331 331 331 332 332 333 333 333 333 333 334 334 334 334 335 335 335 335 336 336 336 336 336 336 336 337 337 338 339 340 342 344 346 349 350 352 354 355 355 356 356 356 357 357 358 359 359 0 1 3 4 6 7 8 8 8 8 7
326 325 325 325 324 324 323 322 322 323 324 325 327 328 328 328 328 328 328 329 329 330 331 332 332 332 332 331 331 332 332 333 333 334 334 334 334 334 335 335 335 335 335 335 336 336 336 336 336 336 337 337 337 337 338 339 340 342 344 346 348 350 352 354 356 357 357 358 358 358 358 358 359 360 1 2 4 5 6 8 8 9 9 9 8 7
325 325 325 324 324 323 322 322 322 323 325 326 328 330 330 330 329 329 329 330 331 332 332 333 333 333 332 332 332 332 333 334 335 335 335 335 335 335 336 336 336 336 336 336 336 336 337 337 337 337 338 338 338 339 340 341 342 345 347 349 350 352 354 356 358 360 360 360 359 359 359 359 0 2 3 4 6 7 8 9 9 9 9 9 9 8
325 324 324 324 323 322 322 322 322 324 326 329 330 331 331 331 331 331 331 332 332 333 333 334 334 333 333 333 333 333 334 335 336 336 337 337 337 337 337 337 337 337 337 337 337 337 337 338 338 339 339 340 340 341 341 343 345 348 350 352 354 355 357 358 360 1 2 1 1 1 1 1 2 4 5 7 8 9 10 10 10 10 9 9 9 9
324 324 324 323 322 322 322 322 324 326 329 331 332 333 333 332 332 332 333 333 334 334 334 334 334 334 333 334 334 334 335 335 336 337 338 338 338 339 338 338 337 337 337 337 337 338 338 339 339 340 341 342 343 343 344 346 348 351 353 355 357 359 360 0 1 2 2 2 2 2 2 3 5 6 8 10 11 12 12 12 12 12 11 10 10 11
323 323 323 323 323 322 323 324 326 328 331 333 334 335 334 334 334 334 334 335 335 335 335 335 335 335 334 335 335 336 336 337 337 338 339 339 340 340 340 339 338 338 338 338 338 339 339 340 340 341 343 344 345 347 348 349 351 353 355 358 0 2 3 4 4 4 4 3 3 3 4 6 8 10 12 13 14 14 14 14 14 13 13 13 13 13
322 323 323 323 323 323 324 326 328 331 334 336 336 336 335 335 335 335 335 336 336 336 336 336 336 336 336 336 336 337 337 338 338 339 339 340 341 341 341 340 339 339 338 339 339 340 341 341 342 343 345 347 348 350 352 353 355 357 358 0 2 4 5 7 7 7 5 4 4 5 7 9 12 14 15 16 16 17 16 16 15 15 14 14 15 15
322 323 323 323 323 324 326 328 331 334 336 338 337 337 336 336 335 336 336 337 337 337 337 337 337 337 337 338 338 338 339 339 339 340 340 341 341 341 341 341 340 340 339 340 341 342 343 344 345 346 348 350 351 353 354 356 358 360 1 3 5 6 8 8 9 8 7 6 5 7 9 12 15 18 19 19 19 18 18 18 17 17 16 16 16 15
322 323 324 324 325 327 329 331 334 337 339 339 338 337 336 336 336 336 337 337 338 338 338 338 338 338 339 339 340 340 340 340 341 341 341 342 342 342 342 342 341 341 341 342 343 344 345 347 348 350 352 353 354 355 356 358 1 2 4 6 7 8 9 9 9 9 8 7 8 9 12 15 18 19 20 20 20 19 19 18 18 18 18 17 17 17
325 326 327 328 330 331 333 336 338 340 340 339 337 336 336 336 337 337 338 338 338 338 339 339 339 339 340 340 340 341 341 341 342 342 343 343 343 343 342 342 342 342 343 344 346 348 350 351 352 354 356 358 358 358 359 1 3 5 7 9 10 10 10 10 10 9 9 9 10 13 16 19 20 21 21 20 19 19 18 18 18 18 18 18 18 18
329 330 332 334 335 336 338 340 341 341 340 338 337 336 336 337 337 338 338 339 339 339 340 340 340 341 341 341 341 342 342 343 343 344 344 344 344 344 343 344 344 344 346 348 350 352 354 356 357 358 360 2 2 2 2 3 5 7 9 11 12 12 11 11 10 10 10 11 13 16 18 21 22 22 21 20 19 18 18 18 18 18 19 19 20 20
333 335 336 338 339 339 341 342 342 341 339 337 337 336 337 337 338 339 339 340 340 341 341 341 342 342 342 342 342 343 343 344 344 345 345 345 345 344 345 345 346 348 350 352 354 356 357 359 0 2 4 6 7 7 8 8 8 9 10 12 13 13 13 12 12 12 12 13 16 19 21 22 22 22 21 20 19 19 19 18 18 18 19 20 21 22